Tracking 18980 objects as of 18-Feb-2018
HD Live streaming from Space Station
objects crossing your sky now

FENGYUN 1C DEB

Track FENGYUN 1C DEB now!
10-day predictions


NORAD ID: 38491
Int'l Code: 1999-025ESA
Perigee: 755.9 km
Apogee: 1,096.8 km
Inclination: 99.2 °
Period: 103.4 minutes
Semi major axis: 7297 km
RCS: 0.0123 m2 (small)
Launch date: May 10, 1999
Source: People's Republic of China (PRC)
Launch site: Taiyaun Space Center, China (TSC)

Note: This is SATELLITE DEBRIS
aabbcc
Your satellite tracking list
Your tracking list is empty




NASA's NSSDC Master Catalog

Two Line Element Set (TLE):
1 38491U 99025ESA 18032.87294139  .00000131  00000-0  10962-3 0  9993
2 38491  99.1691  66.3969 0233572 316.5557  41.7403 13.92679176390883
Source of the keplerian elements: AFSPC